Torna al catalogo

STARLINK-31536

AttivoComunicazioniVLEO
NORAD 59192·PAYLOAD·🇺🇸 United States

Lanciato Mar 10, 2024 da Cape Canaveral Space Force Station

Loading…

Prossimi Passaggi (prossime 24 ore)

TLE

AggiornatoSource: CelesTrak SupGP

Epoca: Sep 15, 2026, 03:05 UTC

1 59192C 24045Q   26258.12895833  .00021174  00000+0  76680-3 0  2585
2 59192  42.9994 102.6804 0001402 272.3263  87.5661 15.27572675    19

Traccia STARLINK-31536 in tempo reale con AllMySat

Download on the App Store